Location: Siratepeler Tepesi
(39.1042°N, 32.0781°E)
Time: 11:19:36
(UTC+00:00)

Terra - Pass Details

Date: 11 April 2026
Orbit: 688 x 691 km, 97.9° (Epoch: 14 May)

Event Time Altitude Azimuth Distance (km) Brightness Sun altitude
Exits shadow 17:17:08 14° 106° (ESE) 1,876 3.3 -10.5°
Maximum altitude 17:19:40 21° 67° (ENE) 1,526 3.2 -11.0°
Drops below altitude 10° 17:23:10 10° 18° (NNE) 2,147 4.4 -11.6°
Sets 17:25:51 0° 3° (N) 3,067 5.4 -12.1°
